Regional Weather Roundup
Issued by NWS

Home | Current Version | Previous Version | Graphics & Text | Print | Product List | Glossary On
Versions: 1 2 3 4 5 6 7 8 9 10 11 12 13 14 15 16 17 18 19 20 21 22 23 24 25 26 27
000
ASUS45 KCYS 170010
RWRWY

WYOMING REGIONAL WEATHER ROUNDUP
NATIONAL WEATHER SERVICE CHEYENNE WY
600 PM MDT WED APR 16 2014

NOTE:  "FAIR" INDICATES FEW OR NO CLOUDS BELOW 12,000 FEET
WITH NO SIGNIFICANT WEATHER AND/OR OBSTRUCTIONS TO VISIBILITY.

WYZ001-170100-
YELLOWSTONE NATIONAL PARK

CITY           SKY/WX    TMP DP  RH WIND       PRES   REMARKS
LK YELLOWSTONE   N/A     35   9  33 W9        30.00R WCI  28
6HR MIN TEMP:  28; 6HR MAX TEMP:  37;

W YELLOWSTONE  NOT AVBL

$$
WYZ002>013-054>058-071-098>099-170100-
NORTHERN WYOMING

CITY           SKY/WX    TMP DP  RH WIND       PRES   REMARKS
JACKSON        MOSUNNY   43  16  33 W7        29.99R
CODY           CLOUDY    45  19  36 SE9       29.96R
GREYBULL       MOSUNNY   50  26  39 SW6       29.95S
6HR MIN TEMP:  48; 6HR MAX TEMP:  52;

WORLAND        MOSUNNY   50  25  37 VRB3      29.96S
6HR MIN TEMP:  46; 6HR MAX TEMP:  51;

SHERIDAN       CLOUDY    38  34  85 S13       30.02S WCI  30
6HR MIN TEMP:  36; 6HR MAX TEMP:  46; 6HR PCP:  0.02;

BUFFALO        LGT SNOW  35  33  92 NW7       30.03S FOG     WCI  29
6HR MIN TEMP:  34; 6HR MAX TEMP:  40; 6HR PCP:  0.02;

GILLETTE       CLOUDY    39  31  72 CALM      30.02S
6HR MIN TEMP:  37; 6HR MAX TEMP:  48; 6HR PCP: TRACE;

HULETT         CLOUDY    41  28  60 N6        30.03
NEWCASTLE      FAIR      45  23  42 N6        30.00

$$
WYZ014>020-022>026-101>103-170100-
CENTRAL WYOMING

CITY           SKY/WX    TMP DP  RH WIND       PRES   REMARKS
BIG PINEY      MOSUNNY   45  10  24 N13       29.98S
6HR MIN TEMP:  40; 6HR MAX TEMP:  47;

PINEDALE       PTCLDY    41  16  36 NW16G23   30.00R
DUBOIS         MOCLDY    37  10  32 NW14G21   29.96R WCI  29
LANDER         MOSUNNY   51  18  27 NW10      29.91R
6HR MIN TEMP:  43; 6HR MAX TEMP:  51;

RIVERTON       CLOUDY    49  16  26 VRB6      29.93R
6HR MIN TEMP:  42; 6HR MAX TEMP:  51;

CASPER         PTSUNNY   43  30  60 NE16      29.98R
6HR MIN TEMP:  33; 6HR MAX TEMP:  46; 6HR PCP:  0.02;

DOUGLAS        PTSUNNY   43  31  62 NE13      30.00R
6HR MIN TEMP:  37; 6HR MAX TEMP:  48; 6HR PCP: TRACE;


$$
WYZ021-027>030-104>119-170100-
SOUTHERN WYOMING

CITY           SKY/WX    TMP DP  RH WIND       PRES   REMARKS
EVANSTON       SUNNY     47   8  20 W15G21    29.99R
6HR MIN TEMP:  43; 6HR MAX TEMP:  50;

KEMMERER       CLEAR     45  10  24 W15       29.99R
FORT BRIDGER   FAIR      51   6  16 NW13G20   30.00R
ROCK SPRINGS   MOSUNNY   50   6  16 NW17G24   29.95S
6HR MIN TEMP:  43; 6HR MAX TEMP:  52;

DIXON          FAIR      50   7  17 W6        29.97S
RAWLINS        PTSUNNY   45   5  19 W8        29.95S
6HR MIN TEMP:  35; 6HR MAX TEMP:  49; 6HR PCP: TRACE;

SARATOGA       FAIR      46   9  21 SW14G22   29.96S
LARAMIE        CLOUDY    41  19  41 N10       29.95R
6HR MIN TEMP:  35; 6HR MAX TEMP:  44;

CHEYENNE       MOSUNNY   43  23  45 N18G26    29.96R
6HR MIN TEMP:  33; 6HR MAX TEMP:  45; 6HR PCP:  0.02;

TORRINGTON     MOSUNNY   51  20  29 N13G18    29.97R
6HR MIN TEMP:  46; 6HR MAX TEMP:  52;

PINE BLUFFS    FAIR      45  23  42 N21G28    29.97R

$$



USA.gov is the U.S. government's official web portal to all federal, state and local government web resources and services.